2022-050C

Last updated on Sat May 14 2022 00:02:03 GMT+0000 (Coordinated Universal Time)

1 52511U 22050C 22133.26930593 .15691567 63660-5 38331-2 0 9997 2 52511 41.1126 70.3207 0089819 188.0694 294.4971 16.17944868 562

Satellite not in orbit